Showing default

AEHF 5 (USA 292), 44481

Orbit data source: Space-Track

AEHF 5 (USA 292), 44481 is a payload satellite owned by USAF MCSW (US) in GEO that was launched on Thu, 08 Aug 2019 UTC via an ATLAS V 551 launch vehicle from the Air Force Eastern Test Range (AFETR). Payload-class satellites include a variety of spacecraft equipped with specific instruments for various scientific and technological missions. These include communications satellites like Starlink; space stations such as the ISS; scientific satellites like the Hubble; Earth observation satellites from companies like Planet Labs, Umbra, and HawkEye 360; GPS; miniature CubeSats for education and research; and military/defense satellites.

Not visible in the next 10 days
Identifier
44481, 2019-051A
Orbit
GEO
Country
Flag of USUS
Related business
Manufacturer
LMSS
Mission
Operational Defense Communications
Bus & Motor
A2100M, BT-4/AJ-EP?
Mass
6,200 kg wet, ~4,000 kg dry
Launch date (UTC)
2019-08-08 (7 years ago)
Launch vehicle
ATLAS V 551
Launch site
Air Force Eastern Test Range (AFETR)
Object type
Payload
Rocket body
Debris
Shape & HBR
Box + 2 Pan, 13.5 m
Radar Cross Section
35.027 m², Large (>1 m²)

Expand to show TLE details & history
Last TLE update: 2 days ago

TLE from 2 days ago
0 AEHF 5 (USA 292)
1 44481U 19051A   26171.05407052 -.00000264  00000-0  00000-0 0  9990
2 44481   1.4512 336.4772 0066222 359.9102  44.4246  1.00273066 25292
Epoch: 2026-06-20T01:17Z
TLE epoch observation values (Epoch: 2026-06-20T01:17:51.692Z)
Latitude
1.03201°
Longitude
93.6065°
Altitude
35,588.36 km
Speed
3.089 km/s
True Right ascension
01h 25m 23s
True Declination
1° 01' 51"
Sunlit
Object was in daylight at epoch
Visualization orbit readout
Latitude
Unknown
Longitude
Unknown
Altitude
Unknown
Speed
Unknown
Apparent Right ascension
Unknown
Apparent Declination
Unknown
Sunlit
N/A
Visualization observer readout
Local Sidereal Time
21:23:39
Azimuth
Unknown
Elevation
Unknown
Doppler factor
Unknown
Orbital elements
Apogee altitude
36,066.533 km
Perigee altitude
35,508.077 km
Semi-major axis
42,165.442 km
Eccentricity
0.00662
Inclination
1.4512°
RAAN
336.4772°
Arg. of periapsis
359.9102°
True anomaly
44.95892°
Mean anomaly
44.4246°
Eccentric anomaly
44.69144°
Mean motion
0.25067 °/min
Orbital period
1,436.13 mins
BSTAR
0
Loading maneuver chart data...
Computing Atmospheric mass density...
Loading historical data...
Loading historical data...
Loading historical data...
Loading historical data...
Loading historical data...
Loading historical data...
Loading historical data...
Other satellites on launch #51 in the year 2019 (2019-08-08 UTC)

Documentation

Showing up to 5 results
|